Vorticity
9 9 10 11 12 12 12 12 12 13 13 14 13 12 11 11 12 12 12 13 14 13 14 14 14 14 15 15 15 15 16 17 18 18 18 17 16 15 15 15 15 15 16 16 16 16 17 16 16 16 16 16 15 12 9 7 7 10 13 16 16 12 8 6 4 3 4 6 8 11 11 10 8 4 -0 -3 -3 -2 -1 2 7 12 13 12 10
8 8 8 9 10 11 12 11 11 10 10 11 12 12 12 11 12 12 12 12 13 13 14 15 15 15 16 17 17 18 18 18 19 20 20 20 20 19 18 18 18 18 18 17 17 17 17 16 16 17 19 20 19 17 15 12 11 12 13 15 16 14 10 8 5 3 2 4 5 5 5 3 -0 -3 -4 -1 3 7 12 15 16 14 11 10 11
8 8 7 8 8 9 10 10 10 10 9 9 10 11 11 11 11 12 12 12 13 13 14 15 16 17 17 18 19 19 20 21 21 21 21 21 21 21 21 20 19 19 18 18 18 18 16 16 16 16 16 17 19 20 19 16 12 8 8 10 13 15 14 12 11 10 9 8 6 5 4 2 -1 -1 3 9 13 15 15 13 10 8 10 12 15
6 6 6 6 7 8 8 8 8 9 9 9 10 10 10 10 11 11 12 13 13 13 14 16 16 17 18 19 21 21 21 21 21 22 23 24 24 23 23 22 21 20 18 18 17 16 16 17 16 15 14 12 13 16 18 20 19 16 10 7 7 10 13 14 15 15 14 12 10 8 7 7 8 12 17 18 16 14 11 10 11 14 16 16 16
4 5 5 5 6 6 6 6 6 7 7 8 8 9 10 10 10 11 12 13 14 15 16 16 17 18 19 20 21 22 22 22 23 24 24 24 24 22 21 20 20 20 19 19 17 15 16 17 16 17 17 16 15 14 12 11 14 17 17 13 8 7 8 9 10 11 11 10 10 11 13 16 18 18 15 11 9 10 12 16 18 19 18 16 15
4 4 4 4 4 4 4 4 5 5 6 7 7 8 9 10 11 12 13 15 16 17 17 17 18 18 19 21 22 22 23 23 22 21 22 22 21 20 20 21 21 20 19 18 16 15 14 15 16 15 12 11 12 12 13 12 11 10 12 13 13 11 10 8 7 7 9 10 12 14 15 14 12 9 8 10 13 16 18 17 16 15 14 14 13
3 3 3 2 2 2 2 3 4 5 6 7 7 8 9 10 12 13 14 16 17 18 17 17 17 18 21 23 23 23 23 21 19 18 18 19 18 17 18 19 21 21 20 18 17 16 16 14 14 14 12 11 10 8 8 10 8 4 4 5 6 7 7 8 10 12 13 15 15 14 13 11 11 12 16 19 20 20 19 16 15 14 12 10 8
3 3 2 2 2 2 2 3 4 5 6 7 7 8 9 11 13 15 16 17 18 19 17 16 17 19 22 23 23 22 20 17 17 17 18 17 16 15 14 16 19 20 21 21 17 14 16 17 17 19 18 17 18 17 15 14 12 8 5 5 5 6 8 11 15 17 17 16 15 15 16 18 19 21 20 19 17 15 13 12 12 11 11 10 8
3 3 2 1 1 1 2 3 4 5 7 7 7 9 10 12 15 16 17 18 20 19 17 18 19 20 23 25 20 15 13 14 16 17 17 16 14 14 15 15 17 17 18 21 20 13 11 13 12 11 11 12 13 13 11 16 24 23 16 13 13 13 14 16 18 19 19 19 19 20 20 20 20 18 15 13 11 10 8 7 6 6 6 8 10
4 3 2 2 2 2 2 3 4 6 7 7 8 9 12 15 17 19 19 19 20 20 19 19 19 21 27 24 14 12 15 15 15 15 16 16 15 17 20 17 15 15 14 15 18 15 11 12 10 6 7 8 6 4 5 11 21 28 26 25 26 25 25 25 24 23 23 22 21 19 17 14 12 11 9 8 7 7 7 6 6 6 6 5 8
4 3 2 2 2 2 3 3 5 7 7 8 9 11 15 19 21 21 21 19 19 19 21 21 18 23 27 18 10 15 18 15 14 15 14 16 17 18 19 14 9 11 14 13 14 14 12 14 16 16 15 11 7 12 18 18 18 23 27 27 26 25 23 22 20 18 16 15 13 11 10 9 8 8 9 8 8 8 8 7 7 7 6 5 5
4 3 3 3 2 2 3 4 6 7 8 9 11 15 20 23 24 23 20 18 18 20 23 21 17 24 28 16 8 13 14 13 15 15 14 16 21 22 20 17 14 15 17 17 16 15 13 13 16 17 17 18 20 22 21 18 17 19 19 16 15 14 12 11 11 10 10 10 9 9 9 8 8 8 8 9 9 8 8 8 7 7 7 7 6
4 3 3 3 3 3 4 5 8 9 9 10 14 20 25 25 25 22 17 17 18 21 25 19 16 27 27 10 5 11 15 17 16 13 12 13 17 22 23 24 26 24 24 24 21 20 21 21 23 25 25 26 25 21 16 15 14 12 9 9 9 8 8 9 9 9 9 9 9 9 9 9 9 8 7 7 8 8 8 8 8 8 7 7 7
4 4 3 3 3 3 4 6 8 9 9 13 20 26 28 26 24 20 16 17 19 22 22 16 19 29 19 5 14 21 14 13 12 9 12 12 12 17 22 25 28 27 27 28 28 28 28 27 26 24 22 18 13 11 10 9 8 7 8 9 9 9 10 10 9 9 9 8 8 8 8 8 8 7 6 6 6 7 7 7 7 8 8 8 8
5 4 3 3 4 4 5 7 9 10 12 18 26 30 30 26 21 17 17 18 20 21 19 16 23 26 8 -1 17 22 10 7 7 6 14 19 17 16 16 15 17 16 16 17 16 16 15 14 12 10 9 8 7 7 7 6 7 9 9 9 9 9 9 8 8 8 8 8 8 7 7 6 7 7 7 7 7 6 7 7 6 7 6 7 8
5 4 3 3 4 4 5 8 10 11 16 24 30 32 29 22 17 17 18 19 19 18 17 17 24 26 11 -1 7 13 8 6 9 11 16 17 13 12 11 10 10 10 10 10 10 10 9 8 9 9 9 9 9 9 9 9 10 9 8 9 9 8 8 8 8 8 7 8 8 7 7 7 7 8 7 7 7 7 8 7 7 6 6 6 6
5 4 3 4 4 4 6 9 11 14 22 30 33 31 26 19 15 17 18 18 17 16 16 18 22 25 18 7 6 10 7 7 13 15 10 6 7 10 10 11 11 10 10 10 9 10 11 11 10 10 10 10 10 10 10 9 9 9 9 9 8 8 9 8 8 8 8 8 7 7 8 8 7 8 7 7 7 6 6 6 6 6 7 6 6
5 4 3 4 4 4 7 11 13 20 29 34 33 29 23 16 15 17 17 16 16 16 15 17 22 25 19 9 8 13 13 13 13 8 3 5 9 9 6 5 5 5 5 5 6 6 7 7 8 9 9 9 9 9 9 9 10 10 9 9 9 9 9 8 8 9 8 8 8 8 8 8 7 7 7 7 6 5 5 6 6 6 6 6 6
5 3 3 4 3 5 9 12 17 27 34 34 31 26 19 15 14 16 16 14 14 16 16 15 19 24 19 8 7 15 20 18 8 -1 0 7 9 8 7 5 4 4 4 3 4 6 7 9 11 11 11 11 11 10 10 9 9 9 9 9 9 9 9 9 9 8 8 8 8 7 7 6 6 6 5 5 5 5 6 7 6 6 6 5 6
5 3 4 4 3 6 11 15 23 32 35 33 28 22 16 15 15 15 15 14 13 14 17 15 13 18 19 12 8 13 19 17 5 -3 -1 4 8 12 13 10 8 8 8 8 8 10 12 12 13 12 12 12 11 10 10 10 10 10 10 9 9 9 9 9 9 8 8 7 6 6 6 6 5 5 5 5 6 6 6 6 6 5 5 4 5
5 4 4 3 4 9 14 20 30 34 33 30 24 18 15 15 15 14 14 14 13 13 17 16 12 12 14 12 12 16 17 12 5 2 1 2 7 10 10 10 11 9 7 9 9 9 9 9 9 9 10 11 10 10 10 10 10 10 9 9 9 9 9 9 8 8 6 6 7 7 6 6 5 5 6 6 6 6 5 5 5 5 5 4 4
6 4 4 3 6 11 17 26 33 33 30 27 20 15 15 14 14 15 14 13 13 13 15 17 15 13 12 11 13 18 18 12 5 3 2 -0 2 5 4 5 8 8 5 4 3 3 3 4 6 7 9 10 11 10 10 10 10 10 10 10 10 9 9 8 6 6 6 6 7 6 6 6 5 5 6 6 5 5 5 6 5 5 6 5 5
6 4 4 4 8 15 22 31 35 30 27 25 18 14 15 13 13 15 15 14 15 13 14 15 13 12 14 14 13 16 19 15 8 4 3 1 -1 0 -0 0 3 5 5 3 1 0 1 2 5 7 9 11 11 9 9 10 10 10 10 9 9 8 7 6 5 6 6 6 6 6 6 6 5 6 6 5 6 6 6 6 6 5 6 5 5
6 5 5 6 11 18 26 33 33 27 24 22 17 14 14 11 13 16 15 13 15 14 13 14 10 8 10 13 15 16 18 18 14 10 9 7 3 -0 -2 -1 1 3 5 5 3 2 2 3 6 8 10 10 8 8 9 9 10 10 9 8 8 7 6 5 6 6 6 6 6 6 6 6 6 5 5 5 7 6 5 6 6 5 5 5 5
6 4 5 8 13 21 30 33 29 23 22 20 16 15 13 10 13 17 15 14 15 14 13 14 11 8 7 9 12 15 17 19 20 18 16 12 8 5 2 1 2 4 7 8 6 4 4 5 8 9 9 8 8 9 9 9 9 9 8 7 7 6 6 6 6 6 7 7 6 6 6 6 5 5 6 6 6 5 5 6 5 5 6 5 6
6 5 6 10 16 24 31 31 25 20 19 19 17 14 10 9 13 17 16 14 15 14 13 13 13 12 10 10 11 12 13 15 18 20 20 17 13 10 8 6 6 7 8 9 8 5 5 7 10 9 8 8 9 9 10 10 10 9 8 8 7 6 6 6 6 7 7 6 6 7 6 5 5 6 6 6 5 5 5 5 5 6 5 6 9
5 6 8 12 19 28 31 28 23 17 16 19 20 15 9 9 13 16 16 15 15 14 13 12 13 12 11 12 13 13 14 14 15 17 20 20 17 15 13 11 9 9 10 10 7 5 6 9 10 8 8 9 9 9 10 10 9 9 7 6 6 6 6 6 6 7 6 6 7 6 5 5 6 6 5 6 6 6 6 5 5 5 5 9 14
6 7 10 15 23 29 30 25 20 15 14 18 20 15 9 9 10 11 12 13 14 15 15 13 13 13 12 11 12 12 14 15 15 17 20 21 19 17 15 13 12 11 10 7 5 6 9 10 8 8 9 9 8 9 10 9 8 7 6 6 7 6 6 7 6 6 7 7 5 5 5 6 5 5 6 6 6 5 5 5 5 6 9 15 20
7 8 12 18 25 30 28 22 16 14 14 19 21 15 9 8 9 9 9 10 12 14 15 15 14 13 13 13 13 12 13 14 15 17 19 19 18 16 14 12 10 8 6 6 7 8 8 8 8 8 8 8 9 10 9 8 7 6 6 6 6 6 6 7 7 7 6 5 4 5 6 5 5 6 6 5 5 5 5 5 7 11 16 21 26
7 10 15 21 27 29 25 18 15 14 14 19 21 16 8 7 10 10 9 9 10 11 14 16 15 12 11 13 14 15 16 17 18 19 19 17 14 12 10 8 7 6 6 8 8 8 8 8 9 8 8 8 9 9 8 7 6 6 6 6 7 7 7 6 7 6 5 5 5 6 5 5 6 6 5 5 5 5 5 8 13 18 22 27 31
9 12 18 24 28 28 22 16 14 14 15 20 22 16 9 6 9 11 12 10 10 10 12 14 15 13 11 10 12 14 15 16 16 16 14 12 10 8 7 7 7 8 8 8 8 8 9 9 9 9 9 9 9 7 7 7 6 6 7 7 7 7 7 7 7 6 5 6 6 6 6 6 6 5 5 5 4 5 9 14 19 24 29 30 26
11 15 20 24 26 25 20 16 13 13 16 20 22 18 11 5 5 8 10 11 11 11 11 12 13 14 12 9 8 8 8 9 10 9 8 8 8 8 8 8 8 8 8 9 9 9 10 10 9 9 9 8 8 7 7 7 7 7 7 7 7 7 7 7 6 5 6 6 6 7 7 6 6 6 5 4 5 9 15 20 24 30 30 23 14
14 18 22 24 24 23 19 15 13 14 16 19 21 18 13 8 6 7 8 10 11 11 11 11 12 13 13 12 10 8 7 7 8 8 8 8 8 9 9 8 8 8 8 9 10 10 10 10 10 9 9 8 7 7 8 7 7 6 7 7 7 6 6 6 6 6 7 7 7 7 7 6 6 5 4 6 10 15 21 27 31 30 22 11 10
16 20 24 23 21 21 19 15 13 14 16 19 20 18 13 11 10 8 7 9 11 12 12 11 10 11 11 10 10 10 10 9 9 9 9 9 9 8 8 8 8 9 9 10 10 10 10 10 9 8 8 7 7 8 8 7 6 7 7 7 6 7 6 6 6 6 7 7 7 7 6 6 5 4 6 10 15 20 28 33 29 19 11 10 18
19 23 25 20 17 19 19 16 14 15 16 18 19 16 14 13 12 9 8 8 10 12 12 10 9 9 9 9 10 11 10 10 10 10 9 9 9 8 9 9 9 10 9 10 10 10 10 10 8 7 7 8 9 8 7 6 7 7 6 5 6 6 5 5 6 7 7 7 7 7 6 5 4 6 10 14 21 29 34 29 17 10 12 19 25
22 25 22 17 15 17 18 16 15 15 16 18 17 15 14 14 12 10 8 8 9 11 11 11 10 10 9 10 11 10 10 10 10 9 9 9 9 9 9 9 9 9 10 10 10 10 9 8 7 8 9 9 8 6 6 7 7 6 5 5 6 5 5 6 7 7 7 8 7 6 5 5 6 10 15 21 29 34 28 16 9 12 20 25 23
23 23 19 13 13 16 17 17 17 16 16 17 16 13 12 15 15 12 8 7 8 8 9 9 10 10 11 12 11 10 10 10 9 9 9 9 9 9 9 10 10 10 10 10 9 8 8 8 9 9 9 7 6 5 6 6 5 4 5 6 5 6 6 6 7 7 8 8 6 5 5 7 10 15 21 29 34 28 15 9 14 22 24 22 18
23 20 15 11 13 15 16 17 18 17 16 16 16 13 11 12 14 13 11 9 9 8 8 9 10 10 11 12 11 10 10 9 9 10 10 9 10 10 9 9 10 9 9 9 8 8 8 9 9 8 6 5 5 5 5 5 5 5 7 7 6 7 7 6 7 8 8 6 5 5 7 12 16 21 29 33 27 15 9 14 23 25 20 18 20
22 17 12 11 13 14 15 18 19 18 15 15 15 14 12 11 12 13 12 11 10 10 10 10 11 12 11 10 10 10 9 9 10 10 9 9 10 9 9 10 10 10 10 10 8 8 8 8 8 6 5 5 5 5 4 5 6 6 7 8 7 7 7 7 8 8 6 5 6 8 12 17 23 29 32 25 13 9 16 23 24 20 18 22 30
18 13 11 12 13 13 15 18 19 18 16 13 13 14 13 12 11 12 11 11 11 11 11 11 12 13 12 11 11 11 11 11 11 10 10 10 10 10 11 11 10 11 10 9 8 8 8 7 7 6 6 5 5 5 5 6 7 7 8 8 7 7 8 8 8 6 5 5 9 14 18 24 30 30 23 12 9 16 24 23 18 19 25 30 32
16 13 11 12 13 13 15 17 18 18 17 15 13 13 13 12 12 11 12 11 10 10 10 11 12 13 12 12 12 12 12 12 12 11 11 11 11 11 11 10 10 10 8 8 8 8 8 7 7 6 6 6 6 6 6 6 7 8 8 8 8 7 8 7 6 5 7 10 15 20 25 29 29 21 10 9 17 24 23 18 19 26 31 29 23
15 13 11 12 13 13 14 16 17 17 16 16 14 12 10 11 13 12 12 12 11 10 10 10 11 12 12 12 12 12 12 12 12 11 11 11 10 11 11 10 10 9 8 8 9 8 7 7 6 6 7 7 6 7 6 6 7 9 8 8 8 8 7 7 6 7 11 16 20 26 29 28 19 10 8 17 25 23 18 20 27 31 28 22 17
14 13 12 12 12 12 14 16 17 16 14 14 15 14 12 12 12 12 12 11 10 10 10 10 11 12 12 12 12 11 11 11 11 10 10 11 10 11 11 11 10 9 9 9 8 7 6 7 7 7 7 7 7 7 6 6 8 8 7 8 9 7 6 6 7 10 16 22 27 29 27 18 9 9 17 24 23 19 21 28 31 27 21 16 14
13 13 13 11 10 11 13 15 16 16 14 13 14 16 15 13 12 11 11 11 10 10 10 11 11 12 11 10 10 9 9 10 10 10 10 11 10 10 11 10 9 9 8 8 7 7 7 7 7 7 8 8 8 7 7 7 8 8 8 9 8 6 5 8 12 17 23 28 30 26 17 8 9 18 23 22 19 22 29 32 27 20 15 12 10
13 13 13 12 10 10 11 13 15 16 15 13 12 14 15 14 14 13 12 11 10 10 10 10 11 11 10 9 9 9 10 10 10 10 10 10 10 11 11 9 8 8 8 7 7 7 7 7 8 8 8 8 8 7 7 8 8 8 9 8 6 5 8 13 18 23 28 30 27 17 8 10 19 23 20 20 24 30 32 28 21 16 13 10 6
12 13 13 12 10 9 10 12 14 16 16 14 12 11 12 13 14 14 14 13 13 12 11 11 11 11 11 10 11 11 11 11 11 11 11 11 11 10 9 9 8 8 8 7 8 8 8 9 9 8 8 8 8 7 8 9 9 8 8 6 5 9 15 20 24 28 29 25 16 8 11 20 24 20 19 25 32 32 27 21 15 13 10 7 5
11 11 12 12 11 10 10 11 12 14 16 16 13 12 11 12 12 13 14 14 14 13 13 13 13 12 12 12 12 13 13 13 12 11 11 11 10 10 9 9 8 8 8 9 9 9 10 9 8 8 8 8 7 8 8 8 8 7 5 6 10 16 21 26 29 29 23 15 9 12 21 24 20 19 26 33 32 25 19 15 11 9 7 4 4
10 10 10 11 11 10 10 10 12 13 14 15 15 13 11 10 11 11 12 12 13 13 13 13 13 13 12 12 13 13 13 13 11 11 10 10 10 9 8 8 8 9 9 10 9 9 9 8 7 8 8 7 7 9 9 7 6 6 6 11 18 22 26 30 29 21 13 10 13 21 24 21 19 27 34 32 24 17 12 10 8 6 4 3 4
8 9 9 10 10 10 10 10 11 12 14 15 15 14 12 10 10 10 11 11 12 13 12 11 11 11 10 10 10 10 10 10 10 10 10 10 9 9 8 8 9 10 9 9 9 8 8 8 8 7 7 8 8 8 7 5 6 9 13 19 24 27 29 28 21 12 10 15 21 24 22 20 26 34 32 22 16 13 10 8 8 5 2 2 3
8 8 8 8 10 10 10 10 10 11 11 13 13 14 14 12 11 11 12 12 12 12 12 11 11 10 9 9 9 8 9 10 10 10 10 9 9 9 9 9 10 9 9 9 9 8 8 8 8 7 8 9 8 6 6 7 10 15 20 24 27 29 27 19 11 9 16 23 24 22 22 26 32 32 23 14 11 10 9 7 6 4 3 3 1
13 11 10 9 9 10 10 10 11 10 10 11 12 14 15 14 12 11 11 10 11 12 12 12 13 13 12 12 12 11 11 11 10 10 10 10 9 10 11 10 9 10 9 9 9 8 8 8 8 8 8 8 6 6 8 11 15 21 25 27 28 25 17 10 9 16 23 24 22 23 27 31 29 22 15 12 10 8 7 7 4 2 4 4 3
Height
5609 5607 5605 5602 5600 5598 5596 5594 5591 5589 5587 5584 5582 5579 5577 5575 5572 5570 5568 5566 5563 5561 5558 5556 5553 5551 5548 5546 5544 5542 5540 5538 5537 5536 5535 5534 5533 5533 5533 5533 5533 5534 5534 5535 5535 5536 5536 5536 5537 5537 5538 5538 5538 5538 5537 5536 5536 5536 5535 5536 5536 5535 5535 5534 5533 5532 5530 5529 5528 5527 5525 5524 5523 5522 5520 5519 5517 5516 5514 5512 5510 5508 5506 5504 5501
5604 5601 5599 5596 5594 5591 5589 5587 5584 5582 5579 5577 5574 5572 5569 5566 5564 5561 5559 5557 5554 5552 5549 5546 5543 5541 5538 5536 5534 5531 5530 5528 5526 5525 5524 5524 5523 5523 5523 5523 5523 5524 5525 5525 5525 5526 5526 5527 5527 5528 5528 5528 5529 5529 5528 5528 5528 5527 5527 5527 5526 5526 5526 5525 5524 5523 5522 5521 5520 5518 5517 5515 5514 5513 5512 5510 5508 5507 5505 5503 5501 5499 5497 5494 5492
5598 5596 5593 5590 5588 5585 5582 5580 5577 5575 5572 5569 5567 5564 5561 5558 5555 5552 5550 5547 5544 5541 5539 5536 5533 5531 5528 5526 5524 5521 5519 5518 5516 5515 5514 5514 5513 5513 5513 5513 5514 5514 5515 5515 5516 5516 5517 5517 5518 5518 5519 5519 5519 5520 5520 5520 5520 5519 5519 5518 5518 5517 5516 5516 5515 5515 5513 5512 5511 5509 5508 5507 5505 5504 5503 5501 5499 5498 5497 5495 5492 5490 5488 5485 5483
5592 5590 5587 5585 5582 5579 5576 5572 5570 5567 5564 5561 5558 5555 5552 5549 5546 5544 5540 5537 5535 5532 5529 5526 5523 5521 5518 5516 5514 5512 5510 5508 5507 5505 5504 5504 5504 5504 5504 5504 5504 5505 5505 5506 5507 5507 5507 5508 5508 5509 5510 5510 5510 5511 5511 5511 5511 5511 5511 5510 5510 5509 5508 5507 5507 5505 5504 5503 5502 5500 5499 5498 5496 5495 5494 5492 5490 5489 5488 5486 5484 5481 5479 5477 5475
5586 5584 5581 5579 5576 5573 5569 5566 5563 5560 5557 5554 5550 5547 5544 5541 5538 5535 5532 5528 5525 5522 5519 5516 5514 5511 5508 5506 5504 5503 5501 5499 5498 5497 5496 5495 5495 5495 5495 5495 5496 5496 5496 5497 5498 5498 5499 5499 5500 5500 5501 5501 5502 5502 5502 5502 5502 5502 5502 5502 5501 5501 5500 5499 5498 5497 5496 5495 5493 5492 5491 5489 5488 5486 5485 5484 5482 5480 5478 5476 5474 5472 5470 5468 5467
5581 5578 5575 5572 5569 5566 5563 5560 5557 5553 5550 5547 5543 5540 5536 5533 5529 5526 5523 5520 5516 5513 5510 5507 5504 5502 5499 5497 5495 5494 5493 5491 5490 5489 5488 5487 5487 5487 5487 5487 5487 5488 5488 5489 5489 5490 5491 5491 5492 5492 5493 5493 5493 5494 5494 5494 5494 5494 5493 5493 5493 5492 5492 5491 5490 5489 5488 5487 5485 5484 5483 5481 5480 5478 5476 5475 5474 5471 5469 5467 5466 5464 5461 5459 5458
5575 5572 5569 5566 5563 5560 5557 5554 5550 5547 5543 5540 5536 5532 5529 5525 5521 5518 5515 5511 5508 5504 5501 5498 5496 5493 5491 5489 5487 5486 5485 5484 5483 5482 5481 5481 5480 5480 5480 5480 5480 5480 5481 5481 5482 5482 5483 5483 5484 5485 5485 5486 5486 5486 5486 5486 5486 5486 5485 5485 5485 5484 5483 5483 5482 5481 5480 5479 5477 5476 5475 5473 5472 5470 5468 5467 5465 5463 5461 5459 5457 5455 5452 5450 5450
5569 5566 5563 5560 5557 5554 5551 5548 5544 5540 5537 5533 5529 5525 5521 5517 5513 5510 5506 5503 5500 5496 5493 5490 5488 5485 5483 5481 5480 5479 5477 5477 5476 5475 5475 5474 5473 5473 5473 5473 5473 5473 5473 5474 5474 5475 5476 5476 5477 5477 5478 5478 5478 5478 5478 5478 5478 5477 5477 5477 5477 5476 5475 5475 5474 5473 5472 5471 5469 5468 5467 5466 5464 5463 5461 5459 5458 5456 5454 5452 5450 5446 5442 5439 5441
5563 5560 5557 5554 5551 5548 5545 5541 5538 5534 5530 5526 5521 5517 5513 5509 5505 5501 5498 5495 5492 5489 5486 5483 5480 5478 5476 5475 5473 5472 5471 5471 5470 5469 5468 5468 5467 5467 5467 5466 5466 5466 5467 5467 5467 5468 5469 5469 5470 5470 5470 5470 5471 5471 5470 5470 5470 5469 5469 5469 5468 5468 5467 5467 5466 5465 5464 5463 5462 5461 5460 5458 5457 5456 5454 5453 5451 5449 5447 5445 5443 5440 5435 5430 5428
5557 5554 5551 5548 5545 5542 5538 5535 5531 5527 5522 5518 5514 5509 5505 5501 5497 5493 5490 5487 5484 5482 5478 5476 5473 5471 5470 5468 5468 5467 5466 5465 5464 5463 5463 5462 5461 5461 5460 5460 5460 5460 5460 5461 5461 5461 5462 5463 5463 5463 5463 5464 5464 5464 5463 5463 5462 5462 5461 5461 5461 5460 5460 5459 5459 5458 5457 5456 5456 5455 5454 5452 5451 5449 5448 5446 5444 5442 5440 5439 5436 5433 5429 5424 5417
5551 5548 5546 5542 5539 5535 5532 5528 5523 5519 5515 5510 5506 5502 5497 5493 5489 5486 5482 5480 5477 5474 5472 5469 5467 5465 5464 5463 5462 5462 5461 5460 5459 5458 5457 5456 5456 5455 5455 5454 5454 5454 5454 5454 5455 5455 5456 5456 5456 5456 5457 5457 5457 5457 5457 5456 5456 5455 5455 5455 5454 5454 5453 5453 5452 5451 5451 5450 5449 5448 5447 5446 5444 5443 5441 5439 5437 5435 5433 5431 5430 5426 5422 5418 5412
5545 5542 5539 5536 5532 5528 5524 5520 5516 5511 5507 5503 5498 5494 5489 5485 5482 5478 5475 5472 5470 5468 5465 5463 5461 5459 5458 5458 5457 5457 5456 5455 5454 5453 5452 5451 5451 5450 5449 5449 5449 5448 5448 5448 5449 5449 5450 5450 5450 5450 5451 5451 5451 5451 5450 5450 5450 5450 5449 5449 5449 5448 5448 5447 5446 5446 5445 5444 5443 5442 5441 5440 5438 5437 5434 5432 5429 5427 5426 5424 5422 5419 5414 5410 5407
5538 5536 5533 5529 5525 5521 5517 5512 5508 5504 5499 5495 5490 5486 5481 5477 5474 5471 5468 5466 5464 5461 5459 5457 5455 5454 5453 5453 5452 5452 5451 5450 5449 5449 5448 5447 5446 5445 5445 5444 5444 5443 5443 5443 5443 5444 5444 5445 5445 5445 5445 5445 5445 5445 5445 5445 5445 5445 5445 5444 5444 5444 5443 5442 5441 5440 5439 5438 5437 5436 5435 5433 5432 5431 5428 5426 5423 5420 5418 5416 5414 5412 5407 5402 5398
5531 5529 5525 5522 5518 5513 5509 5505 5500 5496 5491 5486 5482 5477 5473 5469 5467 5464 5462 5460 5457 5455 5453 5452 5450 5449 5449 5448 5448 5447 5446 5446 5445 5444 5444 5443 5442 5441 5440 5440 5439 5439 5439 5439 5439 5440 5440 5440 5441 5441 5441 5441 5441 5441 5441 5441 5441 5441 5440 5440 5439 5438 5438 5437 5436 5435 5434 5432 5431 5430 5428 5427 5425 5424 5422 5420 5417 5413 5411 5409 5407 5404 5400 5394 5390
5524 5521 5518 5514 5510 5506 5501 5497 5492 5487 5482 5478 5473 5469 5465 5462 5460 5458 5456 5454 5452 5450 5448 5447 5445 5444 5444 5444 5443 5443 5442 5441 5441 5440 5440 5439 5438 5438 5437 5437 5436 5436 5436 5436 5436 5437 5437 5437 5438 5438 5438 5438 5438 5438 5438 5437 5437 5436 5436 5435 5434 5433 5432 5431 5430 5429 5428 5427 5425 5424 5422 5421 5419 5418 5416 5414 5411 5407 5404 5402 5400 5397 5393 5387 5382
5517 5514 5510 5506 5502 5498 5493 5489 5484 5479 5474 5469 5465 5461 5458 5455 5453 5451 5450 5448 5446 5444 5443 5441 5440 5439 5439 5439 5439 5438 5438 5437 5437 5437 5436 5436 5435 5435 5435 5434 5434 5434 5434 5434 5434 5434 5435 5435 5435 5435 5435 5435 5434 5434 5434 5433 5432 5432 5431 5430 5430 5428 5427 5426 5425 5424 5422 5421 5420 5418 5416 5415 5413 5411 5409 5407 5405 5401 5397 5394 5392 5389 5386 5381 5376
5511 5507 5503 5499 5495 5490 5486 5481 5476 5471 5466 5461 5457 5453 5451 5449 5447 5445 5444 5442 5440 5439 5438 5436 5435 5435 5435 5435 5434 5434 5434 5434 5433 5433 5433 5433 5433 5432 5432 5432 5432 5432 5431 5432 5432 5432 5432 5432 5431 5431 5431 5431 5430 5430 5429 5429 5428 5427 5426 5425 5424 5423 5422 5421 5419 5418 5417 5415 5414 5412 5410 5408 5406 5404 5402 5400 5397 5395 5390 5387 5384 5380 5377 5374 5370
5504 5500 5496 5492 5487 5482 5478 5473 5468 5463 5458 5453 5449 5447 5444 5442 5441 5439 5438 5436 5435 5434 5433 5431 5431 5430 5430 5430 5430 5430 5430 5430 5430 5430 5430 5430 5429 5429 5429 5429 5429 5429 5429 5429 5429 5429 5429 5428 5428 5428 5427 5427 5426 5425 5425 5424 5423 5423 5421 5420 5419 5418 5417 5416 5414 5413 5411 5410 5408 5406 5404 5402 5399 5397 5395 5392 5390 5387 5384 5380 5377 5373 5369 5365 5360
5496 5492 5488 5484 5480 5475 5470 5465 5460 5455 5450 5446 5443 5440 5438 5437 5435 5434 5432 5431 5430 5429 5428 5427 5426 5425 5426 5426 5426 5426 5426 5426 5426 5426 5426 5426 5426 5426 5426 5426 5426 5426 5426 5426 5425 5425 5425 5425 5424 5424 5423 5423 5422 5421 5420 5420 5418 5418 5417 5415 5414 5413 5411 5410 5409 5407 5406 5404 5403 5401 5398 5396 5393 5391 5389 5386 5383 5380 5376 5373 5369 5365 5361 5355 5349
5488 5485 5481 5476 5472 5467 5462 5457 5451 5447 5443 5439 5437 5434 5433 5431 5430 5428 5427 5426 5425 5424 5423 5422 5422 5421 5421 5421 5421 5422 5421 5421 5422 5422 5422 5422 5422 5422 5423 5422 5423 5422 5422 5422 5422 5421 5421 5421 5420 5420 5420 5419 5418 5417 5416 5415 5414 5413 5412 5410 5409 5408 5406 5405 5403 5402 5400 5398 5397 5395 5392 5390 5387 5384 5382 5379 5376 5372 5368 5364 5360 5356 5351 5346 5339
5481 5477 5473 5469 5464 5459 5454 5449 5444 5439 5436 5433 5431 5429 5427 5426 5424 5423 5422 5421 5420 5419 5418 5418 5417 5417 5417 5417 5417 5417 5417 5417 5418 5418 5418 5419 5419 5419 5419 5419 5419 5419 5419 5418 5418 5418 5417 5417 5417 5416 5415 5415 5414 5412 5411 5410 5409 5408 5407 5405 5404 5403 5401 5400 5398 5396 5395 5393 5391 5389 5386 5383 5381 5377 5374 5371 5368 5364 5359 5355 5351 5346 5341 5335 5328
5473 5469 5465 5461 5457 5452 5446 5441 5436 5432 5429 5427 5425 5423 5422 5420 5419 5418 5417 5416 5415 5414 5413 5413 5413 5412 5412 5412 5412 5412 5412 5413 5414 5414 5414 5414 5415 5415 5415 5415 5415 5415 5415 5414 5414 5414 5413 5413 5412 5412 5411 5410 5409 5408 5407 5406 5404 5403 5402 5400 5399 5398 5396 5395 5393 5391 5389 5387 5385 5382 5379 5376 5373 5370 5367 5364 5360 5356 5350 5345 5341 5336 5330 5323 5316
5465 5462 5458 5454 5449 5444 5439 5434 5430 5426 5424 5422 5420 5418 5416 5415 5414 5413 5412 5411 5410 5409 5409 5408 5408 5408 5407 5408 5408 5408 5407 5408 5409 5409 5410 5410 5410 5411 5411 5411 5411 5411 5410 5410 5410 5409 5409 5408 5407 5407 5406 5405 5404 5403 5402 5401 5399 5398 5397 5395 5394 5393 5391 5389 5387 5385 5383 5381 5378 5376 5373 5370 5367 5363 5360 5356 5352 5348 5342 5337 5332 5327 5321 5314 5306
5458 5454 5450 5446 5441 5436 5431 5427 5423 5421 5418 5416 5415 5413 5412 5411 5409 5408 5407 5406 5405 5405 5404 5404 5403 5403 5403 5403 5404 5403 5403 5403 5404 5404 5404 5405 5405 5406 5406 5406 5406 5406 5406 5406 5405 5405 5404 5404 5403 5402 5401 5400 5399 5398 5397 5396 5394 5393 5392 5391 5389 5387 5386 5384 5382 5380 5377 5375 5373 5370 5368 5365 5361 5357 5353 5348 5345 5341 5335 5329 5324 5318 5313 5307 5298
5450 5446 5442 5438 5433 5429 5424 5421 5418 5415 5413 5411 5410 5408 5407 5406 5405 5404 5403 5402 5401 5400 5400 5399 5399 5399 5398 5398 5399 5399 5398 5398 5399 5399 5399 5399 5400 5400 5401 5401 5401 5402 5401 5401 5400 5400 5400 5399 5398 5397 5396 5395 5394 5393 5392 5391 5390 5388 5387 5386 5384 5382 5381 5379 5376 5374 5372 5370 5367 5364 5361 5358 5355 5350 5346 5341 5337 5334 5328 5322 5315 5310 5304 5298 5290
5443 5439 5435 5430 5426 5421 5418 5414 5412 5410 5408 5406 5405 5403 5402 5401 5400 5399 5398 5397 5396 5396 5395 5395 5394 5394 5394 5394 5394 5394 5394 5394 5394 5394 5394 5394 5394 5395 5395 5396 5397 5397 5396 5396 5396 5395 5395 5394 5393 5392 5392 5390 5389 5388 5387 5386 5385 5383 5382 5381 5379 5377 5375 5373 5371 5369 5366 5364 5361 5358 5355 5351 5348 5343 5339 5334 5329 5325 5321 5315 5309 5302 5296 5290 5283
5435 5431 5427 5423 5418 5414 5411 5408 5406 5404 5403 5401 5399 5398 5398 5397 5396 5395 5394 5393 5392 5391 5391 5390 5390 5390 5389 5389 5389 5389 5389 5389 5389 5389 5389 5389 5389 5390 5390 5391 5392 5392 5391 5391 5391 5390 5390 5389 5389 5388 5387 5386 5384 5383 5382 5381 5380 5379 5377 5375 5374 5372 5370 5368 5365 5363 5361 5358 5355 5352 5348 5345 5341 5336 5331 5326 5321 5316 5312 5307 5302 5295 5288 5281 5275
5427 5423 5419 5415 5411 5408 5405 5402 5401 5399 5397 5395 5394 5393 5393 5392 5391 5390 5389 5388 5388 5387 5386 5386 5386 5385 5385 5385 5385 5384 5384 5384 5384 5384 5384 5384 5384 5385 5386 5387 5387 5387 5387 5386 5386 5386 5385 5384 5384 5383 5382 5381 5380 5378 5377 5376 5375 5373 5372 5370 5369 5367 5364 5362 5360 5357 5355 5352 5349 5346 5342 5338 5334 5329 5324 5318 5312 5307 5303 5298 5292 5286 5279 5272 5266
5419 5415 5412 5408 5404 5401 5399 5397 5395 5393 5391 5390 5389 5388 5388 5387 5386 5386 5385 5384 5383 5383 5382 5382 5381 5381 5380 5380 5380 5380 5380 5380 5380 5379 5380 5380 5380 5381 5381 5382 5382 5382 5382 5382 5381 5381 5380 5379 5379 5378 5377 5376 5375 5373 5372 5371 5370 5368 5367 5365 5364 5362 5359 5357 5355 5352 5349 5346 5343 5340 5336 5331 5327 5321 5316 5311 5304 5299 5294 5289 5283 5277 5270 5263 5256
5412 5408 5404 5400 5397 5394 5392 5391 5389 5387 5386 5384 5384 5383 5383 5382 5381 5381 5380 5379 5379 5378 5378 5377 5377 5376 5376 5376 5376 5376 5376 5376 5375 5375 5375 5376 5376 5376 5377 5377 5378 5377 5377 5377 5376 5376 5375 5374 5374 5373 5372 5371 5370 5368 5367 5366 5365 5364 5362 5360 5358 5356 5354 5351 5349 5346 5343 5340 5337 5333 5329 5324 5320 5314 5309 5304 5298 5291 5285 5279 5273 5267 5260 5254 5248
5404 5400 5396 5393 5390 5388 5386 5385 5383 5381 5380 5379 5378 5378 5377 5377 5377 5376 5375 5375 5374 5374 5373 5373 5372 5372 5372 5372 5372 5372 5371 5372 5371 5371 5372 5372 5372 5373 5373 5373 5373 5373 5372 5372 5372 5371 5370 5370 5369 5368 5367 5366 5365 5364 5363 5361 5360 5359 5357 5355 5353 5351 5348 5346 5343 5340 5337 5334 5330 5326 5322 5318 5313 5307 5302 5296 5291 5284 5277 5270 5264 5258 5251 5246 5240
5396 5392 5389 5386 5383 5381 5380 5379 5377 5375 5374 5373 5372 5372 5372 5372 5371 5371 5371 5370 5370 5369 5369 5368 5368 5368 5368 5368 5368 5368 5367 5368 5368 5368 5368 5368 5368 5368 5368 5368 5368 5368 5368 5367 5367 5366 5365 5365 5364 5363 5362 5361 5360 5359 5358 5356 5355 5353 5352 5350 5348 5345 5342 5340 5337 5334 5331 5327 5323 5319 5315 5310 5305 5300 5294 5288 5283 5277 5270 5263 5256 5250 5245 5239 5234
5388 5384 5381 5379 5377 5375 5374 5372 5371 5369 5368 5367 5366 5366 5366 5366 5366 5366 5366 5365 5365 5364 5364 5364 5363 5363 5363 5363 5363 5363 5363 5363 5363 5363 5363 5364 5364 5364 5364 5364 5364 5363 5363 5363 5362 5361 5361 5360 5359 5358 5357 5356 5355 5354 5353 5351 5350 5348 5346 5344 5342 5339 5337 5334 5331 5328 5324 5320 5316 5312 5307 5303 5298 5292 5286 5280 5274 5268 5262 5256 5250 5244 5238 5234 5229
5380 5377 5374 5372 5370 5369 5368 5366 5365 5363 5362 5361 5361 5360 5360 5361 5361 5361 5360 5360 5360 5359 5359 5359 5359 5358 5358 5358 5359 5359 5359 5359 5359 5359 5359 5359 5359 5359 5359 5359 5359 5359 5358 5358 5357 5357 5356 5355 5354 5353 5352 5352 5350 5349 5348 5346 5345 5343 5341 5338 5336 5334 5331 5328 5325 5321 5317 5313 5309 5304 5300 5295 5290 5285 5279 5272 5266 5260 5254 5248 5243 5238 5233 5228 5224
5372 5369 5367 5365 5364 5363 5361 5360 5358 5357 5356 5355 5355 5355 5355 5355 5355 5355 5355 5355 5355 5355 5354 5354 5354 5353 5353 5354 5354 5354 5354 5354 5354 5354 5354 5354 5354 5354 5354 5354 5354 5354 5354 5353 5353 5352 5351 5350 5350 5349 5348 5347 5346 5344 5343 5341 5340 5337 5335 5333 5330 5327 5325 5322 5318 5315 5311 5306 5302 5297 5292 5287 5282 5277 5271 5265 5258 5253 5248 5242 5237 5232 5227 5223 5219
5364 5362 5360 5359 5358 5356 5355 5354 5352 5351 5350 5350 5349 5349 5349 5349 5349 5349 5349 5349 5349 5349 5349 5349 5349 5349 5349 5349 5349 5349 5349 5349 5349 5350 5350 5350 5350 5350 5350 5350 5349 5349 5349 5348 5348 5347 5346 5346 5345 5344 5343 5342 5341 5339 5338 5336 5334 5332 5329 5327 5324 5321 5318 5315 5312 5308 5304 5299 5295 5290 5285 5279 5274 5269 5263 5258 5251 5246 5241 5237 5232 5227 5222 5218 5214
5357 5355 5353 5352 5351 5350 5349 5347 5346 5345 5344 5344 5343 5343 5343 5343 5343 5344 5344 5344 5344 5344 5344 5344 5344 5344 5344 5344 5344 5344 5344 5344 5344 5345 5345 5345 5345 5345 5345 5345 5344 5344 5344 5343 5343 5342 5342 5341 5340 5339 5338 5337 5336 5334 5333 5331 5329 5326 5324 5321 5318 5315 5312 5309 5305 5302 5297 5292 5287 5282 5277 5272 5266 5261 5256 5251 5246 5241 5236 5231 5227 5223 5218 5214 5210
5349 5348 5347 5346 5345 5344 5342 5341 5340 5339 5338 5338 5337 5337 5337 5338 5338 5338 5338 5338 5338 5338 5338 5339 5339 5339 5339 5339 5339 5339 5339 5339 5339 5339 5340 5340 5340 5340 5340 5340 5340 5339 5339 5338 5338 5337 5337 5336 5335 5334 5333 5332 5330 5329 5327 5325 5323 5321 5318 5315 5312 5309 5306 5303 5299 5295 5291 5286 5280 5275 5270 5264 5259 5254 5249 5244 5241 5236 5232 5227 5223 5219 5215 5211 5206
5342 5341 5340 5339 5338 5337 5336 5334 5333 5333 5332 5332 5332 5332 5332 5332 5332 5332 5332 5333 5333 5333 5333 5333 5333 5334 5334 5334 5334 5334 5334 5334 5335 5335 5335 5335 5335 5335 5335 5335 5335 5334 5334 5333 5333 5332 5332 5331 5330 5329 5328 5327 5325 5324 5322 5320 5317 5315 5312 5309 5307 5303 5301 5297 5294 5289 5284 5279 5273 5268 5263 5258 5252 5247 5243 5239 5236 5232 5228 5223 5219 5215 5211 5208 5204
5335 5334 5333 5333 5331 5330 5329 5328 5327 5327 5326 5326 5326 5326 5326 5326 5326 5327 5327 5327 5327 5327 5328 5328 5328 5328 5328 5328 5329 5329 5329 5329 5330 5330 5330 5330 5330 5330 5330 5330 5330 5330 5329 5329 5328 5327 5327 5326 5325 5324 5323 5321 5320 5318 5316 5314 5312 5310 5307 5304 5301 5298 5295 5291 5288 5283 5277 5272 5267 5261 5256 5251 5247 5242 5238 5235 5231 5227 5223 5219 5215 5211 5207 5204 5202
5328 5327 5327 5326 5325 5324 5323 5322 5321 5320 5320 5320 5320 5320 5320 5320 5320 5321 5321 5321 5321 5322 5322 5322 5322 5323 5323 5323 5323 5324 5324 5324 5325 5325 5325 5325 5325 5325 5325 5325 5325 5325 5324 5324 5323 5322 5321 5321 5320 5319 5318 5316 5315 5313 5311 5309 5307 5304 5301 5298 5295 5292 5288 5285 5281 5276 5271 5266 5260 5255 5250 5246 5242 5238 5235 5231 5227 5224 5219 5215 5212 5209 5205 5202 5200
5321 5320 5320 5319 5318 5317 5316 5315 5315 5314 5314 5314 5314 5314 5314 5314 5315 5315 5315 5315 5316 5316 5316 5316 5317 5317 5317 5318 5318 5319 5319 5319 5319 5320 5320 5320 5320 5320 5320 5320 5320 5319 5319 5319 5318 5317 5316 5316 5315 5314 5312 5311 5309 5308 5306 5304 5301 5298 5296 5293 5290 5286 5282 5278 5274 5270 5265 5260 5254 5250 5246 5241 5238 5234 5231 5228 5224 5220 5217 5213 5209 5207 5204 5202 5200
5314 5313 5313 5312 5311 5310 5310 5309 5308 5308 5308 5308 5308 5308 5308 5308 5309 5309 5309 5310 5310 5310 5310 5311 5311 5312 5312 5313 5313 5313 5314 5314 5314 5315 5315 5315 5315 5315 5315 5315 5315 5314 5314 5314 5313 5312 5311 5310 5310 5308 5307 5306 5304 5302 5300 5298 5296 5293 5290 5287 5284 5280 5276 5272 5268 5263 5259 5254 5249 5245 5241 5238 5234 5231 5227 5224 5221 5218 5214 5211 5208 5206 5204 5202 5199
5307 5306 5306 5305 5305 5304 5303 5303 5302 5302 5302 5302 5302 5302 5302 5303 5303 5303 5303 5304 5304 5304 5305 5305 5306 5306 5307 5307 5308 5308 5309 5309 5309 5310 5310 5310 5310 5310 5310 5310 5309 5309 5309 5308 5308 5307 5306 5306 5305 5303 5302 5301 5299 5297 5295 5293 5290 5287 5285 5281 5278 5274 5270 5266 5261 5257 5253 5249 5245 5241 5238 5235 5231 5228 5224 5221 5218 5215 5212 5209 5207 5206 5203 5201 5199
5300 5299 5299 5298 5298 5297 5297 5296 5296 5296 5296 5296 5296 5296 5296 5297 5297 5297 5298 5298 5298 5299 5299 5300 5300 5301 5301 5302 5302 5303 5303 5304 5304 5305 5305 5305 5305 5305 5305 5305 5304 5304 5304 5303 5303 5302 5301 5301 5300 5298 5297 5296 5294 5291 5289 5287 5285 5282 5279 5276 5272 5268 5264 5260 5255 5251 5248 5245 5242 5238 5235 5232 5228 5225 5222 5219 5216 5213 5211 5209 5207 5205 5203 5201 5199
5292 5292 5291 5291 5291 5291 5290 5290 5290 5290 5289 5289 5290 5290 5290 5290 5291 5291 5292 5292 5293 5293 5294 5294 5295 5295 5296 5296 5297 5298 5298 5299 5299 5299 5300 5300 5300 5300 5300 5299 5299 5299 5299 5298 5298 5297 5296 5295 5294 5293 5292 5290 5289 5286 5284 5282 5279 5276 5273 5270 5266 5262 5258 5254 5250 5246 5243 5241 5239 5236 5233 5229 5225 5222 5219 5217 5214 5212 5210 5209 5207 5205 5203 5201 5199
5285 5285 5284 5284 5284 5284 5284 5284 5284 5283 5283 5283 5283 5284 5284 5284 5285 5285 5286 5286 5287 5287 5288 5289 5289 5290 5291 5291 5292 5293 5293 5294 5294 5294 5294 5294 5295 5295 5295 5294 5294 5294 5294 5293 5293 5292 5291 5290 5289 5288 5286 5285 5283 5281 5279 5276 5273 5271 5268 5264 5261 5257 5253 5249 5246 5243 5240 5238 5236 5233 5230 5226 5223 5220 5217 5215 5213 5212 5210 5209 5207 5205 5203 5201 5199
5277 5277 5277 5277 5277 5277 5277 5277 5277 5277 5277 5277 5277 5278 5278 5278 5279 5279 5280 5280 5281 5282 5282 5283 5284 5285 5285 5286 5287 5287 5288 5288 5288 5289 5289 5289 5289 5289 5289 5289 5289 5289 5289 5289 5288 5287 5286 5285 5284 5283 5281 5279 5277 5275 5273 5271 5268 5265 5262 5259 5255 5251 5248 5245 5242 5239 5237 5235 5232 5229 5226 5223 5221 5218 5216 5214 5213 5212 5210 5209 5207 5205 5203 5202 5199
5268 5268 5269 5269 5269 5269 5270 5270 5270 5270 5271 5271 5271 5271 5272 5272 5273 5273 5274 5274 5275 5276 5277 5278 5278 5279 5280 5281 5281 5282 5282 5283 5283 5284 5284 5284 5284 5284 5284 5284 5284 5284 5284 5284 5283 5282 5281 5280 5279 5278 5276 5274 5272 5270 5267 5265 5262 5259 5256 5253 5249 5246 5243 5241 5239 5237 5235 5232 5229 5226 5223 5221 5219 5217 5215 5214 5213 5212 5210 5209 5208 5206 5204 5203 5200
5259 5260 5260 5261 5261 5262 5262 5263 5263 5264 5264 5264 5265 5265 5266 5266 5267 5267 5268 5269 5269 5270 5271 5272 5273 5274 5274 5275 5276 5276 5277 5277 5278 5278 5279 5279 5279 5279 5280 5280 5279 5279 5279 5279 5278 5277 5276 5275 5274 5273 5271 5269 5267 5265 5262 5260 5257 5254 5250 5247 5244 5242 5239 5237 5236 5234 5231 5229 5226 5223 5221 5219 5218 5216 5215 5214 5213 5212 5211 5210 5209 5207 5206 5204 5201
5249 5250 5251 5252 5253 5254 5254 5255 5256 5256 5257 5258 5258 5259 5259 5260 5261 5261 5262 5263 5264 5264 5265 5266 5267 5268 5269 5269 5270 5271 5272 5272 5273 5273 5273 5274 5274 5274 5275 5275 5275 5274 5274 5274 5273 5272 5271 5270 5269 5267 5266 5264 5262 5260 5257 5254 5251 5248 5245 5242 5240 5238 5236 5235 5233 5230 5228 5226 5223 5221 5220 5218 5217 5216 5215 5215 5214 5213 5212 5211 5210 5209 5207 5205 5202